This demonstration page uses our WeatherBlox Daily Observations layout. Learn more.

Left ArrowRight Arrow

34.02893, -84.19858

Hourly Observations for September 1, 2022

Temp ( °F °C ) Dew Point ( °F °C ) Humidity (%) Winds ( mph kmh ) Pressure ( in mb ) Visibility ( mi km ) Precip ( " mm )
12:53 am 00:53 Clear 66 18.9 64 17.8 93 93 Calm 29.96 1015 10 16 0.00 0.00
1:53 am 01:53 Clear 65 18.3 63 17.2 93 93 Calm 29.96 1015 10 16 0.00 0.00
2:53 am 02:53 Clear 65 18.3 63 17.2 93 93 Calm 29.96 1014 10 16 0.00 0.00
3:53 am 03:53 Clear 64 17.8 63 17.2 96 96 Calm 29.96 1015 10 16 0.00 0.00
4:53 am 04:53 Clear 64 17.8 62 16.7 93 93 Calm 29.96 1015 10 16 0.00 0.00
5:53 am 05:53 Clear 63 17.2 62 16.7 97 97 Calm 29.97 1015 10 16 0.00 0.00
6:53 am 06:53 Clear 64 17.8 61 16.1 90 90 N 3 6 29.98 1015 10 16 0.00 0.00
7:53 am 07:53 Sunny 65 18.3 63 17.2 93 93 Calm 29.99 1016 10 16 0.00 0.00
8:53 am 08:53 Sunny 72 22.2 64 17.8 76 76 Calm 30.00 1016 10 16 0.00 0.00
9:53 am 09:53 Sunny 77 25 65 18.3 66 66 Calm 30.01 1016 10 16 0.00 0.00
10:53 am 10:53 Sunny 81 27.2 66 18.9 61 61 ESE 5 7 30.02 1017 10 16 0.00 0.00
11:53 am 11:53 Sunny 85 29.4 68 20 57 57 VRB 3 6 30.02 1017 10 16 0.00 0.00
12:53 pm 12:53 Mostly Sunny 87 30.6 68 20 53 53 VRB 7 11 30.01 1016 10 16 0.00 0.00
1:53 pm 13:53 Partly Cloudy 85 29.4 67 19.4 55 55 Calm 30.00 1016 10 16 0.00 0.00
2:53 pm 14:53 Mostly Sunny 86 30 67 19.4 53 53 VRB 5 7 29.96 1015 10 16 0.00 0.00
3:53 pm 15:53 Mostly Sunny 88 31.1 67 19.4 50 50 Calm 29.94 1014 10 16 0.00 0.00
4:53 pm 16:53 Mostly Cloudy 89 31.7 68 20 50 50 Calm 29.94 1014 10 16 0.00 0.00
5:53 pm 17:53 Mostly Sunny 89 31.7 67 19.4 48 48 Calm 29.93 1014 10 16 0.00 0.00
6:53 pm 18:53 Partly Cloudy 85 29.4 68 20 57 57 ESE 3 6 29.94 1014 10 16 0.00 0.00
7:53 pm 19:53 Sunny 80 26.7 69 20.6 69 69 Calm 29.94 1014 10 16 0.00 0.00
8:53 pm 20:53 Mostly Clear 80 26.7 71 21.7 74 74 SSE 6 9 29.96 1015 10 16 0.00 0.00
9:53 pm 21:53 Clear 78 25.6 70 21.1 76 76 undefined N/A 29.98 1015 10 16 0.00 0.00
10:53 pm 22:53 Clear 76 24.4 71 21.7 85 85 VRB 3 6 30.00 1016 10 16 0.00 0.00
11:53 pm 23:53 Clear 75 23.9 71 21.7 88 88 SSE 3 6 30.00 1016 10 16 0.00 0.00

Powered by AerisWeather